RH
85 91 95 94 96 97 97 97 96 95 92 75 51 28 21 18 19 19 18 18 21 26 32 36 37 34 34 32 31 45 35 28 31 33 43 45 43 38 39 44 45 46 41 46 45 51 51
85 95 99 98 97 97 98 97 97 95 92 83 59 28 16 14 13 13 15 17 22 28 34 40 39 33 45 19 43 47 34 35 34 37 48 49 49 48 47 52 50 51 56 61 58 53 51
92 97 98 99 97 97 98 98 97 96 94 88 67 24 9 7 8 10 11 18 24 31 35 41 37 42 40 23 38 39 34 39 39 40 51 53 51 37 55 49 56 57 56 56 52 49 49
97 99 96 94 96 96 97 97 97 95 92 84 48 13 6 4 3 5 8 21 29 39 36 40 36 45 25 38 44 45 40 43 44 46 50 52 51 56 52 55 51 60 55 49 30 53 43
98 96 95 96 96 96 96 96 96 96 92 80 21 6 5 4 3 4 14 26 40 42 37 38 46 41 25 40 46 43 47 45 46 50 54 53 55 68 64 54 40 50 38 49 43 45 40
95 96 96 96 95 95 95 95 96 96 92 71 19 7 4 3 3 7 28 33 45 56 50 47 53 30 30 33 39 44 48 45 46 52 48 65 75 71 78 49 34 25 51 55 51 29 44
95 95 95 95 94 94 95 95 95 95 88 68 29 7 4 3 4 35 28 28 29 20 34 39 36 34 36 40 42 44 46 42 45 47 40 73 62 56 50 59 34 35 39 39 39 30 40
95 95 94 94 94 94 95 94 95 95 88 56 20 5 5 11 36 35 31 71 70 66 52 47 51 48 40 38 36 40 41 41 50 43 59 56 62 46 44 48 61 65 63 64 51 41 42
95 94 94 94 94 94 95 96 95 92 80 40 15 19 11 24 42 49 66 80 73 75 63 36 45 40 39 36 40 38 44 51 52 59 62 52 33 45 41 41 50 57 56 50 44 38 44
93 93 93 94 94 94 95 96 96 88 60 24 30 36 20 32 38 67 76 70 72 74 47 26 43 42 38 39 39 46 45 44 50 53 55 65 50 47 45 46 43 50 44 41 44 46 55
93 93 93 93 94 95 96 93 89 84 56 29 42 43 32 33 56 75 69 59 68 54 43 22 40 37 43 42 44 45 46 44 53 48 46 44 35 38 47 45 43 46 37 40 42 52 55
92 91 92 93 94 95 93 91 91 84 44 28 48 46 42 40 62 61 52 67 62 53 32 33 41 43 33 43 44 51 51 45 47 58 56 58 48 44 44 38 44 35 38 50 68 65 80
88 91 93 94 94 93 91 90 86 74 29 29 47 48 52 55 65 59 58 51 48 50 26 41 42 39 43 34 42 56 56 57 53 53 48 47 47 48 42 44 42 41 54 79 74 90 78
90 92 91 93 93 91 92 90 80 52 12 28 42 49 55 62 68 68 49 28 21 29 49 50 47 47 31 38 36 39 61 67 56 52 65 72 67 44 43 42 38 55 58 80 75 69 43
91 90 92 92 91 92 91 89 73 23 11 28 43 47 49 43 62 71 38 50 39 51 55 61 43 29 28 34 34 27 42 63 56 60 66 67 66 40 45 41 40 48 63 49 57 54 81
90 90 91 90 91 90 89 86 75 14 14 33 47 51 46 38 61 44 42 49 58 55 56 54 48 44 46 54 39 34 30 72 72 72 68 62 72 46 39 40 42 46 43 63 75 76 73
94 89 90 90 91 89 86 80 61 17 20 39 45 53 40 41 50 60 42 55 63 55 59 56 59 60 64 75 74 58 40 70 59 55 64 80 73 55 43 50 44 52 66 59 59 70 62
89 89 89 90 91 88 84 73 55 22 30 37 46 32 32 45 63 89 75 67 55 58 54 69 65 74 82 82 81 75 76 68 48 48 72 68 99 98 66 44 43 42 52 56 70 64 76
88 87 88 90 91 87 75 74 46 21 39 45 78 74 26 34 50 61 41 48 62 65 54 63 77 65 68 79 81 79 76 61 49 47 60 85 85 91 61 45 49 57 52 57 65 69 69
88 86 88 89 91 85 69 47 34 19 38 41 58 40 49 72 70 48 44 67 60 54 52 54 56 53 59 67 75 81 62 56 53 50 45 46 83 84 91 83 61 66 64 72 85 96 92
86 87 88 89 91 89 46 29 29 19 29 30 78 85 72 66 69 70 61 62 63 64 57 56 58 56 61 74 69 68 61 58 52 48 51 53 72 57 53 49 49 49 49 43 51 78 96
87 90 88 88 88 89 83 32 27 25 25 57 69 69 78 80 61 63 70 76 68 68 62 63 63 62 57 70 62 81 71 67 70 55 61 59 80 68 84 59 50 51 42 41 51 64 95
94 88 87 85 86 88 88 56 33 23 23 70 90 72 58 75 67 66 78 69 72 68 52 55 57 66 70 63 62 65 65 63 61 69 75 76 75 80 79 51 55 65 90 84 83 94 92
90 87 85 84 85 88 88 82 44 37 27 52 83 62 54 73 66 68 70 68 69 70 68 62 59 68 55 60 70 66 74 72 70 71 65 91 92 85 89 74 90 93 89 93 91 91 91
87 84 88 88 84 90 89 89 59 51 43 42 71 62 74 83 69 74 70 74 74 70 69 65 61 56 66 73 77 71 58 47 48 60 83 90 99 84 90 87 83 80 86 93 94 94 92
85 85 92 89 84 88 87 85 85 52 50 46 65 62 70 88 74 63 77 79 83 84 82 70 60 63 66 70 78 84 79 62 65 66 58 50 92 95 78 79 92 92 82 61 92 94 91
87 91 92 90 86 94 91 89 85 71 57 50 78 66 63 91 75 70 74 69 78 85 94 87 77 79 74 92 86 84 88 74 81 96 71 72 85 95 86 80 92 90 66 53 88 94 83
88 89 90 91 88 89 92 90 86 91 81 67 78 84 76 98 85 74 68 78 83 87 88 76 82 77 95 93 91 94 98 87 87 76 71 76 96 96 94 99 96 81 58 75 85 64 59
89 89 86 90 91 83 89 89 92 95 80 75 74 87 85 73 84 78 78 77 70 65 81 90 86 88 94 97 97 92 86 81 88 93 70 91 90 92 92 90 91 87 86 58 61 70 65
Wind_Speed
5 7 8 10 11 12 13 14 14 15 16 16 17 16 16 16 17 17 17 18 16 17 16 10 6 4 2 2 3 1 0 3 4 2 6 2 3 2 2 1 3 1 3 3 5 5 5
5 7 9 10 11 12 13 14 15 16 17 17 18 18 17 17 17 18 18 19 18 17 11 7 3 2 2 0 2 1 1 3 7 6 5 6 2 1 3 0 1 2 4 7 6 4 4
5 7 9 10 12 13 14 15 16 17 18 19 19 19 18 18 18 18 18 18 19 15 6 4 1 2 2 2 2 2 1 3 5 5 2 4 2 2 3 1 2 2 6 7 5 3 5
6 8 9 10 11 13 14 16 17 18 19 19 20 20 20 19 18 19 18 18 15 6 4 1 2 1 2 1 1 2 1 2 4 5 5 3 3 3 2 2 4 3 3 4 1 3 2
6 7 8 10 12 13 15 16 17 18 19 20 21 20 20 20 18 17 16 16 5 3 2 2 0 2 1 1 1 1 2 1 3 3 4 3 3 3 3 3 4 5 3 3 9 6 2
6 7 8 10 11 13 15 17 18 19 20 22 22 21 20 18 16 14 14 8 1 2 1 0 2 2 1 0 1 2 4 4 2 1 3 4 4 3 3 3 4 4 3 4 6 1 0
5 7 9 10 12 13 15 17 18 20 21 23 24 21 19 16 14 11 11 2 5 2 5 0 1 3 2 2 1 2 2 3 2 5 1 3 2 7 8 7 2 1 3 5 5 4 3
4 6 8 11 12 14 15 17 19 20 22 23 23 19 17 15 7 9 7 6 2 2 6 2 2 3 5 2 3 1 2 2 2 1 1 4 6 4 3 3 4 3 2 7 6 3 5
5 7 9 11 13 15 17 18 19 20 22 23 19 17 15 10 3 9 17 8 3 1 0 5 1 2 1 1 0 2 3 2 1 1 3 5 2 2 2 3 3 4 5 4 8 3 4
5 7 9 12 14 15 17 19 20 21 22 21 16 16 14 5 2 4 4 6 3 1 5 5 4 2 2 1 2 1 4 2 1 2 2 5 4 3 1 4 6 3 9 6 3 2 4
5 7 9 12 14 16 18 19 21 21 22 17 13 15 12 12 3 4 6 7 1 1 4 3 3 3 1 2 3 2 1 2 3 1 3 7 3 2 3 7 6 8 4 4 3 4 2
6 8 10 12 15 17 19 20 21 22 21 13 9 12 12 5 6 6 8 4 1 6 4 4 3 4 5 1 1 2 2 2 1 2 3 7 3 4 7 5 8 1 1 5 4 3 2
5 7 10 13 16 18 19 21 22 22 21 11 5 8 13 9 4 10 4 2 5 5 4 5 4 5 2 4 3 2 3 4 1 6 3 5 5 3 3 2 1 2 5 3 3 1 7
5 7 10 13 16 18 20 21 23 22 19 11 2 4 7 15 11 7 2 5 4 3 2 3 4 6 2 6 3 5 2 4 4 1 3 3 8 4 3 5 4 5 7 5 6 4 9
4 7 10 13 16 19 21 22 23 22 17 8 1 3 5 17 9 5 5 4 3 1 2 6 6 3 4 3 4 6 1 4 4 6 2 4 6 3 4 3 5 3 5 5 3 1 2
4 7 11 13 16 19 22 24 25 21 17 6 2 2 6 19 6 2 5 3 1 2 4 2 2 3 2 5 6 6 1 5 7 6 4 5 8 4 3 1 5 5 2 0 1 3 9
4 8 11 14 17 20 23 26 26 22 16 3 3 3 10 12 3 5 4 1 2 4 6 5 3 4 3 4 4 3 4 5 7 10 7 7 2 10 4 5 10 3 4 4 2 4 10
5 7 11 14 18 21 23 26 26 20 14 3 3 2 14 6 4 2 3 3 6 6 9 5 3 3 3 5 3 3 4 5 8 7 7 4 5 6 11 15 11 6 6 6 5 6 4
6 8 11 15 18 20 23 26 26 18 13 3 3 1 9 6 3 2 3 4 4 7 6 6 6 6 4 2 3 3 4 6 13 9 10 6 4 6 8 8 4 3 4 3 2 2 6
6 10 11 14 17 20 23 26 28 15 9 3 3 2 4 5 2 4 2 3 3 5 3 3 4 5 4 5 4 5 5 4 13 6 20 4 5 10 13 15 14 16 23 16 11 4 3
8 10 10 13 17 20 23 25 28 16 7 2 4 1 1 3 4 5 3 2 3 5 4 7 3 6 4 3 4 4 4 9 3 12 3 7 9 11 17 19 19 20 20 22 19 15 8
9 10 11 14 16 19 22 25 27 23 6 8 3 3 3 2 2 4 5 2 2 3 3 3 3 5 2 4 4 10 5 4 5 4 2 2 10 15 22 25 20 21 21 18 16 12 6
10 10 11 13 16 18 20 22 26 28 9 7 4 3 4 3 2 3 1 1 3 2 1 1 1 1 4 4 4 11 9 12 10 8 3 3 3 6 7 12 12 11 8 5 6 6 3
10 10 11 13 14 16 18 20 22 26 24 12 5 4 3 2 3 3 2 1 1 1 2 4 3 1 2 7 7 7 6 10 8 8 8 3 3 4 5 4 2 3 10 8 14 15 17
10 10 10 12 13 14 16 17 19 19 20 23 10 4 3 3 3 3 3 2 2 4 1 3 2 2 7 4 3 6 4 4 0 4 6 5 2 4 5 8 2 7 10 8 7 7 15
11 9 9 10 10 11 13 14 14 15 14 16 19 10 5 4 3 4 3 1 1 3 5 3 4 6 3 1 2 2 2 2 4 7 4 3 3 1 3 5 5 3 16 20 11 3 15
10 10 9 8 8 10 10 11 12 12 14 12 11 12 7 3 1 3 2 2 4 1 2 4 5 5 2 2 2 1 3 1 2 2 4 4 3 2 5 3 2 10 20 15 5 6 18
9 9 7 6 7 6 9 9 9 8 9 10 6 10 6 2 3 2 1 3 2 1 1 3 3 2 2 1 1 2 1 3 1 3 4 1 3 2 3 3 3 16 7 6 6 12 14
9 8 6 6 5 5 6 7 8 10 8 6 3 6 6 2 3 2 8 10 8 10 3 1 2 2 2 1 2 2 3 1 3 2 4 1 3 3 2 2 5 3 7 7 8 11 11
Wind_Direction
38 18 27 23 18 10 6 1 358 357 355 351 347 343 342 340 339 339 338 339 337 334 332 330 328 335 12 19 309 0 188 359 9 22 49 68 83 129 180 208 339 202 318 305 297 297 264
29 33 22 20 11 6 3 1 358 354 352 349 344 340 336 335 333 332 332 334 333 329 328 330 334 352 104 322 17 157 0 7 24 37 43 38 71 89 91 110 168 321 288 276 280 268 231
36 25 24 15 12 6 1 359 356 353 350 347 342 339 335 331 328 326 326 331 330 325 327 329 78 118 73 233 359 131 90 56 43 52 77 42 55 97 147 158 324 324 328 314 222 223 230
27 25 17 15 10 5 360 358 355 352 349 346 342 340 335 332 332 329 328 330 332 336 344 89 117 63 214 327 79 181 139 86 77 63 92 74 65 101 54 325 17 15 53 353 318 162 201
19 22 16 13 9 4 1 357 354 351 347 345 343 337 332 331 330 329 330 331 339 359 38 100 66 116 336 58 171 240 195 133 112 78 64 97 75 97 39 85 1 9 245 225 314 203 140
26 17 16 13 8 5 1 357 353 349 346 344 341 336 333 333 331 332 337 342 13 82 81 166 98 28 341 213 130 104 157 132 96 60 29 44 45 77 46 96 233 250 244 241 250 331 216
32 16 11 11 11 5 -0 355 351 348 345 343 340 342 341 340 341 343 350 350 16 346 36 65 276 253 345 329 127 68 128 119 46 45 325 4 30 221 216 205 177 189 209 253 256 251 236
38 21 13 9 5 2 357 352 350 348 345 344 346 349 348 347 22 12 30 72 70 250 318 3 268 286 266 313 359 61 142 100 65 285 344 360 245 234 190 183 204 186 256 260 283 248 185
31 22 13 6 1 357 355 354 352 350 348 347 354 355 357 357 48 43 71 64 11 180 79 312 278 5 336 159 254 331 134 97 157 238 210 203 249 73 154 239 198 188 207 228 238 339 251
53 23 9 1 358 358 357 353 352 350 350 353 2 3 5 7 99 42 63 13 5 169 62 317 350 2 11 55 38 331 172 119 233 246 199 237 299 275 249 264 170 250 225 239 266 64 261
45 21 8 1 359 358 357 353 352 350 351 359 13 12 5 38 80 51 337 339 320 186 26 317 359 311 18 71 295 10 355 40 241 239 102 254 261 253 224 223 167 238 150 188 183 184 357
49 12 6 5 360 358 356 353 351 350 352 1 17 21 14 24 59 5 337 348 85 44 263 354 335 357 10 0 357 3 33 10 225 294 233 243 308 251 222 221 194 113 108 55 48 103 257
51 24 10 3 0 358 357 355 353 352 354 1 18 28 33 37 348 340 346 63 37 120 294 331 328 359 352 306 0 36 10 335 259 343 324 322 235 257 196 236 127 134 71 321 325 2 232
24 34 17 6 0 1 359 357 354 353 358 358 11 36 40 25 356 352 357 51 83 286 348 340 322 320 351 14 11 351 6 319 28 6 316 260 318 191 179 214 203 184 169 171 223 241 281
60 29 19 13 8 1 -0 357 355 355 357 3 58 75 39 356 353 343 73 61 197 193 275 332 322 15 332 10 22 25 29 348 28 4 286 308 266 312 230 229 157 197 183 195 199 150 82
34 31 23 17 11 7 1 358 356 356 358 13 95 82 21 348 346 31 72 138 118 22 343 354 278 40 295 323 356 18 314 353 339 10 339 300 297 218 327 332 254 186 193 169 356 231 254
50 23 29 22 14 9 7 0 359 359 1 23 83 59 354 350 23 50 104 146 66 45 18 7 338 324 2 346 340 303 309 23 358 339 38 4 289 285 339 220 263 299 257 235 191 182 253
61 32 30 25 20 12 10 5 360 1 6 31 78 39 356 11 47 32 76 5 8 0 14 5 70 61 15 4 314 277 359 85 17 11 16 320 289 273 270 281 271 219 244 209 226 258 232
82 49 32 29 22 16 13 9 5 5 15 36 80 309 359 8 98 40 1 53 66 16 27 15 26 49 2 353 321 311 355 172 28 28 13 337 308 310 295 310 14 339 12 34 319 256 231
80 62 38 30 23 18 15 14 10 10 12 55 78 38 351 39 38 102 82 23 46 19 60 32 31 59 24 1 11 307 323 346 345 348 320 308 236 258 281 292 317 299 306 315 303 233 254
88 65 42 35 28 21 21 21 13 11 22 87 28 109 200 26 29 72 77 30 35 8 18 20 76 59 3 306 292 244 321 324 317 299 28 340 280 296 291 295 302 293 290 295 284 290 270
95 70 46 39 34 29 23 23 23 14 38 77 108 127 35 80 38 65 15 40 78 332 333 16 35 337 258 241 238 299 271 233 249 295 314 263 284 286 281 278 270 283 288 280 273 280 287
98 75 57 46 40 36 30 30 33 31 45 84 73 92 101 342 79 101 86 129 98 273 241 100 300 287 287 268 277 275 255 271 257 287 304 239 256 290 270 294 288 277 338 284 94 17 306
99 82 68 53 49 41 38 36 42 42 50 88 77 101 83 84 81 101 117 106 42 329 272 312 346 185 268 329 291 277 250 254 265 255 202 228 236 254 287 317 273 72 10 15 65 35 25
107 90 73 57 57 53 49 41 42 46 42 61 56 77 97 105 107 120 123 112 308 322 284 268 267 236 317 314 329 326 337 3 306 213 209 230 281 303 322 311 229 3 347 346 350 59 25
112 95 78 68 64 55 49 45 41 42 39 55 48 52 88 115 229 114 117 101 22 348 340 265 307 320 360 313 318 277 293 306 325 329 229 272 180 185 315 338 346 346 318 318 299 129 11
118 102 86 76 68 55 53 52 45 40 42 54 52 38 60 96 243 116 139 152 124 79 278 309 327 343 358 17 283 296 286 249 293 292 305 315 343 222 302 269 134 346 321 310 50 325 332
118 103 93 83 67 58 49 46 48 41 26 42 58 43 53 102 296 164 167 130 107 130 201 277 358 341 354 3 261 302 212 263 278 250 292 308 317 313 313 321 292 359 9 46 315 316 325
120 108 94 87 81 64 46 35 36 30 42 45 71 49 48 59 224 283 274 259 249 237 151 301 203 238 236 7 250 289 282 295 223 272 19 93 355 299 2 346 26 10 70 355 343 316 322